Location: Deer Lodge Site
(39.6809°N, 119.9392°W)
Time: 12:23:16
(UTC-07:00)

Amateur Radio Satellites - All Passes

Search period start: 21 September 2017 11:53
Search period end: 22 September 2017 11:53
Location: Deer Lodge Site, 39.6809°N, 119.9392°W

Satellite Date Start Highest point End Downlink Frequencies (MHz)
Time Altitude Azimuth
Max Valier Satellite 21 Sep 11:53:25 11:55:43 16° 293° (WNW) 11:58:02 145.860
YUBILEINY 21 Sep 11:55:13 12:02:31 31° 84° (E) 12:09:48 435.215
NANOSAT C BR1 21 Sep 11:55:52 11:59:57 56° 74° (ENE) 12:04:05 145.865
O/OREOS (USA 219) 21 Sep 12:06:08 12:09:35 20° 57° (ENE) 12:13:02 437.305
Oscar 19 21 Sep 12:07:57 12:09:29 11° 59° (ENE) 12:11:03 437.125/150
DUCHIFAT 1 21 Sep 12:25:42 12:29:51 74° 257° (WSW) 12:34:04 145.980
LO-87 21 Sep 12:29:55 12:33:26 55° 285° (WNW) 12:36:58 145.935 - 145.965
POLYITAN 1 21 Sep 12:35:47 12:39:46 43° 261° (W) 12:43:49 437.675
EO-79 21 Sep 12:40:57 12:44:50 37° 262° (W) 12:48:47 145.935-145.965
ESTCUBE 1 21 Sep 12:42:13 12:46:44 79° 284° (WNW) 12:51:12 437.505/2401.250
QB50P2 21 Sep 12:54:12 12:57:38 24° 265° (W) 13:01:07 145.880/145.840
Gurwin Techsat 1B 21 Sep 13:08:43 13:13:13 29° 67° (ENE) 13:17:44 435.225
BUGSAT 1 21 Sep 13:11:13 13:15:13 86° 259° (W) 13:19:17 437.445
M-CUBED/EXP-1 PRIME 21 Sep 13:19:21 13:23:07 28° 258° (WSW) 13:26:43 437.505
VELOX 1 21 Sep 13:22:18 13:26:34 49° 100° (E) 13:30:48 145.980
NANOSAT C BR1 21 Sep 13:34:43 13:35:59 11° 269° (W) 13:37:16 145.865
SPROUT 21 Sep 13:40:38 13:44:55 71° 285° (WNW) 13:49:11 437.525
Oscar 19 21 Sep 13:42:47 13:48:00 88° 72° (ENE) 13:53:14 437.125/150
O/OREOS (USA 219) 21 Sep 13:44:51 13:49:09 40° 254° (WSW) 13:53:27 437.305
YUBILEINY 21 Sep 13:50:22 13:58:50 54° 283° (WNW) 14:07:20 435.215
RS-15 21 Sep 13:52:32 14:03:53 44° 42° (NE) 14:14:39 29.354- 29.394
AO-7 21 Sep 13:54:44 14:00:54 24° 54° (NE) 14:07:04 .
NO-84 21 Sep 13:54:57 13:58:47 64° 134° (SE) 14:02:19 435.350 FM
SO-50 21 Sep 13:55:45 13:58:49 18° 110° (ESE) 14:01:53 436.795
PCSat 21 Sep 14:06:52 14:09:20 13° 103° (ESE) 14:11:48 145.827
50 SAT 21 Sep 14:24:33 14:27:52 82° 283° (WNW) 14:31:09 437.505
UKube-1 21 Sep 14:37:16 14:41:30 54° 101° (E) 14:45:41 .
DX 1 21 Sep 14:39:00 14:43:20 90° 325° (NW) 14:47:41 434.975-435.025
ITAMSAT 1 21 Sep 14:43:47 14:47:44 23° 65° (ENE) 14:51:41 435.822/435.867
Gurwin Techsat 1B 21 Sep 14:48:13 14:53:01 34° 263° (W) 14:57:51 435.225
VELOX 1 21 Sep 15:00:03 15:02:35 15° 296° (WNW) 15:05:06 145.980
MOZHAYETS 4 21 Sep 15:25:05 15:28:36 21° 94° (E) 15:32:05
ITUPSAT 1 21 Sep 15:31:20 15:35:14 24° 95° (E) 15:39:06 437.325
NO-84 21 Sep 15:33:48 15:36:25 18° 329° (NNW) 15:38:54 435.350 FM
SO-50 21 Sep 15:34:36 15:38:54 46° 307° (NW) 15:43:15 436.795
AO-7 21 Sep 15:44:24 15:52:46 81° 253° (WSW) 16:01:08 .
PCSat 21 Sep 15:46:34 15:51:59 78° 299° (WNW) 15:57:27 145.827
RS-15 21 Sep 16:05:18 16:16:54 62° 247° (WSW) 16:27:53 29.354- 29.394
BEESAT 21 Sep 16:09:01 16:13:46 61° 101° (ESE) 16:18:30 436.000
UKube-1 21 Sep 16:14:54 16:17:02 14° 297° (WNW) 16:19:10 .
ITAMSAT 1 21 Sep 16:21:59 16:26:53 43° 261° (W) 16:31:49 435.822/435.867
MOZHAYETS 4 21 Sep 17:01:34 17:05:51 37° 289° (WNW) 17:10:03
ITUPSAT 1 21 Sep 17:08:44 17:13:04 35° 291° (WNW) 17:17:24 437.325
XW-2D 21 Sep 17:14:38 17:16:39 14° 66° (ENE) 17:18:41 145.860 - 145.880
CUBESAT XI-V 21 Sep 17:21:19 17:25:58 76° 102° (ESE) 17:30:34 437.345
XW-2B 21 Sep 17:26:11 17:28:50 18° 68° (ENE) 17:31:31 145.730 - 145.750
XW-2F 21 Sep 17:28:04 17:30:43 18° 68° (ENE) 17:33:23 145.980 - 146.000
DOVE 4 21 Sep 17:29:52 17:34:24 85° 76° (ENE) 17:38:42 437.250
PCSat 21 Sep 17:33:36 17:36:18 14° 319° (NW) 17:39:00 145.827
HO-68 21 Sep 17:37:30 17:41:50 17° 55° (NE) 17:46:11 435.675
KKS-1 21 Sep 17:38:11 17:42:20 37° 99° (E) 17:46:27 437.445
AO-7 21 Sep 17:42:29 17:46:38 14° 270° (W) 17:50:49 .
XW-2C 21 Sep 17:46:29 17:49:55 32° 72° (ENE) 17:53:22 145.795 - 145.815
BEESAT 21 Sep 17:48:20 17:51:00 15° 297° (WNW) 17:53:41 436.000
CUTE-I 21 Sep 17:53:28 17:58:23 40° 69° (ENE) 18:03:19 437.470
LilacSat-2 21 Sep 17:55:42 17:59:24 44° 74° (ENE) 18:03:07 437.200
NUDT-PHONESAT 21 Sep 17:58:16 18:01:35 30° 71° (ENE) 18:04:55 437.300
STARS 21 Sep 18:09:08 18:13:06 32° 98° (E) 18:17:04 437.465
KAITUO 1B 21 Sep 18:22:35 18:26:20 67° 76° (ENE) 18:30:08 145.475/437.950
RS-15 21 Sep 18:24:24 18:26:33 11° 267° (W) 18:28:42 29.354- 29.394
SEEDS 21 Sep 18:42:54 18:45:49 18° 67° (ENE) 18:48:44 437.485
XW-2D 21 Sep 18:46:50 18:50:27 40° 261° (W) 18:54:06 145.860 - 145.880
XW-2A 21 Sep 18:49:59 18:51:08 11° 66° (ENE) 18:52:17 145.665 - 145.685
XW-2B 21 Sep 18:59:24 19:02:47 29° 263° (W) 19:06:12 145.730 - 145.750
XW-2F 21 Sep 19:01:14 19:04:36 29° 263° (W) 19:08:00 145.980 - 146.000
CUBESAT XI-V 21 Sep 19:01:15 19:02:40 11° 299° (WNW) 19:04:04 437.345
CUTE 1.7 + AOD 2 21 Sep 19:05:05 19:09:15 52° 74° (ENE) 19:13:26 437.475
CUBEBUG 2 21 Sep 19:11:41 19:15:27 33° 70° (ENE) 19:19:20 437.445
AAUSAT CUBESAT 2 21 Sep 19:12:36 19:15:19 17° 67° (ENE) 19:18:02 437.432
Tancredo 1 21 Sep 19:13:50 19:14:11 10° 130° (SE) 19:14:31 437.200
KKS-1 21 Sep 19:15:24 19:18:36 20° 294° (WNW) 19:21:49 437.445
HO-68 21 Sep 19:21:25 19:28:34 89° 74° (ENE) 19:35:47 435.675
XW-2C 21 Sep 19:21:41 19:24:09 16° 267° (W) 19:26:40 145.795 - 145.815
UWE-3 21 Sep 19:23:31 19:27:04 26° 69° (ENE) 19:30:42 435.000/436.395/437.385
LilacSat-2 21 Sep 19:32:23 19:33:53 12° 269° (W) 19:35:25 437.200
NUDT-PHONESAT 21 Sep 19:33:06 19:35:30 16° 267° (W) 19:37:54 437.300
CUTE-I 21 Sep 19:34:16 19:38:32 24° 265° (W) 19:42:49 437.470
STRAND 1 21 Sep 19:34:52 19:38:54 23° 94° (E) 19:42:54 437.568
STARS 21 Sep 19:45:52 19:49:14 22° 293° (WNW) 19:52:38 437.465
AO-73 21 Sep 20:13:58 20:18:03 44° 72° (ENE) 20:22:15 145.935
ZACube-1 21 Sep 20:15:22 20:19:31 52° 74° (ENE) 20:23:50 437.345
Oscar 11 21 Sep 20:15:53 20:19:46 33° 71° (ENE) 20:23:42 .
BEESAT 3 21 Sep 20:16:46 20:20:40 54° 118° (ESE) 20:24:38 437.485
SEEDS 21 Sep 20:17:16 20:21:13 37° 263° (W) 20:25:09 437.485
XW-2A 21 Sep 20:20:17 20:23:28 37° 262° (W) 20:26:41 145.665 - 145.685
BEESAT 2 21 Sep 20:20:24 20:23:04 17° 110° (ESE) 20:25:45 435.950
NO-84 21 Sep 20:29:47 20:32:18 24° 34° (NNE) 20:34:42 435.350 FM
CUTE 1.7 + AOD 2 21 Sep 20:43:28 20:45:22 13° 269° (W) 20:47:16 437.475
Tancredo 1 21 Sep 20:45:43 20:48:22 55° 325° (NW) 20:51:01 437.200
AAUSAT CUBESAT 2 21 Sep 20:46:33 20:50:27 38° 262° (W) 20:54:21 437.432
CUBEBUG 2 21 Sep 20:49:04 20:52:08 20° 267° (W) 20:55:18 437.445
Max Valier Satellite 21 Sep 20:57:58 20:59:54 14° 67° (ENE) 21:01:51 145.860
nSIGHT-1 21 Sep 20:59:00 21:01:44 25° 134° (SE) 21:04:28 .
UWE-3 21 Sep 20:59:53 21:03:26 26° 265° (W) 21:07:06 435.000/436.395/437.385
DELFI C3 21 Sep 21:00:36 21:03:39 22° 69° (ENE) 21:06:42 145.870
AO-85 21 Sep 21:00:45 21:04:32 52° 118° (ESE) 21:08:21 145.980
HO-68 21 Sep 21:13:18 21:17:08 15° 271° (W) 21:20:59 435.675
STRAND 1 21 Sep 21:13:23 21:18:11 41° 290° (WNW) 21:22:59 437.568
UNISAT 6 21 Sep 21:34:40 21:35:37 11° 89° (E) 21:36:34 437.425
ISS 21 Sep 21:51:08 21:54:24 86° 142° (SE) 21:57:42 437.550
AO-73 21 Sep 21:51:59 21:54:31 15° 269° (W) 21:57:05 145.935
Oscar 11 21 Sep 21:52:42 21:55:58 20° 266° (W) 21:59:14 .
ZACube-1 21 Sep 21:54:10 21:56:09 13° 270° (W) 21:58:09 437.345
FO-29 21 Sep 21:54:20 21:59:43 55° 101° (ESE) 22:05:39 435.910
BEESAT 3 21 Sep 21:56:02 21:58:33 16° 315° (NW) 22:01:05 437.485
BEESAT 2 21 Sep 21:56:42 22:00:28 39° 307° (NW) 22:04:19 435.950
TIGRISAT 21 Sep 21:57:00 22:00:10 18° 93° (E) 22:03:21 435.000
EO-88 21 Sep 22:01:28 22:05:06 64° 75° (ENE) 22:08:45 145.990 - 145.960
NO-84 21 Sep 22:07:13 22:09:34 22° 232° (SW) 22:11:51 435.350 FM
YUBILEINY 21 Sep 22:07:13 22:11:23 14° 60° (ENE) 22:15:32 435.215
Tancredo 1 21 Sep 22:22:31 22:23:24 11° 343° (NNW) 22:24:16 437.200
SO-50 21 Sep 22:26:51 22:29:52 17° 43° (NE) 22:32:53 436.795
Max Valier Satellite 21 Sep 22:29:55 22:33:22 37° 262° (W) 22:36:52 145.860
DELFI C3 21 Sep 22:34:56 22:38:16 26° 264° (W) 22:41:37 145.870
nSIGHT-1 21 Sep 22:34:59 22:37:58 33° 330° (NNW) 22:40:58 .
AO-85 21 Sep 22:42:56 22:45:14 15° 316° (NW) 22:47:34 145.980
PCSat 21 Sep 22:54:01 22:56:17 12° 40° (NE) 22:58:33 145.827
LO-87 21 Sep 23:04:43 23:08:04 45° 74° (ENE) 23:11:28 145.935 - 145.965
PRISM 21 Sep 23:07:58 23:11:58 56° 101° (E) 23:15:56 437.425
UNISAT 6 21 Sep 23:08:06 23:12:46 74° 285° (WNW) 23:17:27 437.425
ISS 21 Sep 23:28:54 23:31:15 18° 339° (NNW) 23:33:36 437.550
TIGRISAT 21 Sep 23:32:35 23:37:01 44° 287° (WNW) 23:41:28 435.000
ESTCUBE 1 21 Sep 23:40:22 23:44:53 84° 78° (ENE) 23:49:27 437.505/2401.250
FO-29 21 Sep 23:40:40 23:44:30 20° 295° (WNW) 23:48:33 435.910
YUBILEINY 22 Sep 00:01:06 00:09:51 74° 81° (E) 00:18:35 435.215
SO-50 22 Sep 00:06:11 00:10:46 67° 241° (WSW) 00:15:22 436.795
DUCHIFAT 1 22 Sep 00:11:13 00:14:10 18° 93° (E) 00:17:08 145.980
nSIGHT-1 22 Sep 00:13:46 00:15:04 12° 349° (N) 00:16:22 .
VELOX 1 22 Sep 00:18:29 00:22:35 39° 71° (ENE) 00:26:40 145.980
POLYITAN 1 22 Sep 00:21:15 00:25:04 30° 97° (E) 00:28:52 437.675
EO-79 22 Sep 00:26:02 00:29:57 34° 97° (E) 00:33:52 145.935-145.965
AIST 2D 22 Sep 00:30:03 00:33:32 63° 284° (WNW) 00:37:00 435.315
SPROUT 22 Sep 00:32:35 00:36:48 76° 75° (ENE) 00:41:03 437.525
PCSat 22 Sep 00:35:16 00:40:42 70° 60° (ENE) 00:46:04 145.827
QB50P2 22 Sep 00:38:43 00:42:56 54° 100° (E) 00:47:07 145.880/145.840
PRISM 22 Sep 00:45:16 00:46:44 12° 297° (WNW) 00:48:12 437.425
50 SAT 22 Sep 00:53:41 00:56:28 25° 71° (ENE) 00:59:14 437.505
BUGSAT 1 22 Sep 00:54:51 00:57:11 14° 92° (E) 00:59:32 437.445
M-CUBED/EXP-1 PRIME 22 Sep 00:59:20 01:01:12 14° 99° (E) 01:03:01 437.505
ISS 22 Sep 01:08:08 01:08:46 10° 360° (N) 01:09:26 437.550
NANOSAT C BR1 22 Sep 01:16:11 01:20:26 68° 285° (WNW) 01:24:40 145.865
Gurwin Techsat 1B 22 Sep 01:27:50 01:29:20 11° 89° (E) 01:30:50 435.225
UKube-1 22 Sep 01:30:39 01:34:41 40° 71° (ENE) 01:38:43 .
Tancredo 1 22 Sep 01:32:44 01:34:28 15° 23° (NNE) 01:36:12 437.200
DX 1 22 Sep 01:33:16 01:37:34 70° 75° (ENE) 01:41:53 434.975-435.025
DUCHIFAT 1 22 Sep 01:46:02 01:49:55 35° 289° (WNW) 01:53:48 145.980
nSIGHT-1 22 Sep 01:51:19 01:52:33 12° 10° (N) 01:53:47 .
Oscar 19 22 Sep 01:55:34 02:00:12 33° 97° (E) 02:04:47 437.125/150
VELOX 1 22 Sep 01:56:09 01:59:09 18° 267° (W) 02:02:09 145.980
POLYITAN 1 22 Sep 01:57:19 02:00:39 22° 292° (WNW) 02:03:58 437.675
YUBILEINY 22 Sep 01:59:29 02:05:41 22° 280° (W) 02:11:54 435.215
EO-79 22 Sep 02:02:22 02:05:27 20° 293° (WNW) 02:08:33 145.935-145.965
QB50P2 22 Sep 02:16:10 02:18:13 13° 296° (WNW) 02:20:17 145.880/145.840
O/OREOS (USA 219) 22 Sep 02:17:38 02:21:16 25° 102° (ESE) 02:24:56 437.305
PCSat 22 Sep 02:20:27 02:23:26 15° 256° (WSW) 02:26:24 145.827
MOZHAYETS 4 22 Sep 02:26:26 02:29:40 19° 66° (ENE) 02:32:56
50 SAT 22 Sep 02:27:01 02:28:57 15° 266° (W) 02:30:54 437.505
BUGSAT 1 22 Sep 02:28:44 02:32:44 44° 287° (WNW) 02:36:45 437.445
M-CUBED/EXP-1 PRIME 22 Sep 02:32:53 02:35:43 26° 295° (WNW) 02:38:28 437.505
ITUPSAT 1 22 Sep 02:37:16 02:41:12 26° 67° (ENE) 02:45:10 437.325
ISS 22 Sep 02:44:01 02:46:19 17° 20° (NNE) 02:48:38 437.550
Gurwin Techsat 1B 22 Sep 03:04:32 03:09:53 83° 283° (WNW) 03:15:12 435.225
Tancredo 1 22 Sep 03:06:34 03:09:15 65° 220° (SW) 03:11:56 437.200
UKube-1 22 Sep 03:08:06 03:10:51 17° 267° (W) 03:13:36 .
BEESAT 22 Sep 03:14:17 03:18:59 64° 74° (ENE) 03:23:43 436.000
nSIGHT-1 22 Sep 03:26:41 03:29:40 32° 29° (NNE) 03:32:38 .
Oscar 19 22 Sep 03:34:59 03:39:23 29° 293° (WNW) 03:43:46 437.125/150
AO-7 22 Sep 03:47:23 03:54:52 36° 98° (E) 04:02:17 .
O/OREOS (USA 219) 22 Sep 03:56:33 04:00:31 30° 299° (WNW) 04:04:31 437.305
MOZHAYETS 4 22 Sep 04:02:08 04:06:29 42° 261° (W) 04:10:54
ITUPSAT 1 22 Sep 04:14:39 04:18:53 32° 263° (W) 04:23:09 437.325
RS-15 22 Sep 04:16:58 04:26:03 25° 100° (E) 04:35:10 29.354- 29.394
ISS 22 Sep 04:19:53 04:23:11 89° 35° (NE) 04:26:29 437.550
CUBESAT XI-V 22 Sep 04:23:16 04:27:55 66° 74° (ENE) 04:32:36 437.345
BEESAT 3 22 Sep 04:34:29 04:37:50 25° 49° (NE) 04:41:07 437.485
ITAMSAT 1 22 Sep 04:35:11 04:40:23 70° 103° (ESE) 04:45:34 435.822/435.867
KKS-1 22 Sep 04:35:24 04:39:17 31° 70° (ENE) 04:43:12 437.445
BEESAT 2 22 Sep 04:39:10 04:40:23 11° 41° (NE) 04:41:35 435.950
Gurwin Techsat 1B 22 Sep 04:47:41 04:48:57 11° 302° (WNW) 04:50:13 435.225
BEESAT 22 Sep 04:55:06 04:57:09 13° 269° (W) 04:59:14 436.000
nSIGHT-1 22 Sep 05:03:06 05:05:57 28° 226° (SW) 05:08:47 .
STARS 22 Sep 05:05:01 05:08:38 26° 68° (ENE) 05:12:17 437.465
DOVE 4 22 Sep 05:29:33 05:32:52 22° 95° (E) 05:36:15 437.250
AO-85 22 Sep 05:31:43 05:35:53 38° 53° (NE) 05:40:19 145.980
AO-7 22 Sep 05:39:53 05:47:46 50° 296° (WNW) 05:55:38 .
CUBESAT XI-V 22 Sep 06:03:59 06:05:42 12° 270° (W) 06:07:25 437.345
BEESAT 3 22 Sep 06:11:57 06:15:21 27° 247° (WSW) 06:18:40 437.485
CUTE-I 22 Sep 06:12:15 06:15:37 17° 92° (E) 06:18:58 437.470
KKS-1 22 Sep 06:12:23 06:15:51 22° 265° (W) 06:19:20 437.445
BEESAT 2 22 Sep 06:14:40 06:18:44 89° 91° (E) 06:22:43 435.950
ITAMSAT 1 22 Sep 06:16:21 06:19:14 15° 299° (WNW) 06:22:07 435.822/435.867
XW-2D 22 Sep 06:20:29 06:23:23 20° 94° (E) 06:26:15 145.860 - 145.880
RS-15 22 Sep 06:24:43 06:37:01 86° 301° (WNW) 06:49:27 29.354- 29.394
XW-2B 22 Sep 06:32:28 06:35:45 27° 96° (E) 06:39:01 145.730 - 145.750
XW-2F 22 Sep 06:33:51 06:37:06 27° 96° (E) 06:40:21 145.980 - 146.000
STARS 22 Sep 06:41:15 06:44:53 26° 264° (W) 06:48:33 437.465
STRAND 1 22 Sep 06:49:52 06:54:15 30° 68° (ENE) 06:58:39 437.568
HO-68 22 Sep 06:51:50 06:56:18 17° 91° (E) 07:00:45 435.675
XW-2C 22 Sep 06:53:22 06:57:07 52° 100° (E) 07:00:48 145.795 - 145.815
NUDT-PHONESAT 22 Sep 07:02:28 07:06:06 47° 99° (E) 07:09:40 437.300
LilacSat-2 22 Sep 07:03:34 07:07:26 78° 101° (ESE) 07:11:14 437.200
DOVE 4 22 Sep 07:06:53 07:10:33 29° 289° (WNW) 07:14:21 437.250
AO-85 22 Sep 07:12:28 07:16:07 24° 247° (WSW) 07:19:57 145.980
KAITUO 1B 22 Sep 07:28:13 07:31:58 74° 285° (WNW) 07:35:40 145.475/437.950
AO-7 22 Sep 07:36:59 07:38:33 11° 317° (NW) 07:40:07 .
XW-2A 22 Sep 07:43:56 07:45:27 12° 92° (E) 07:46:57 145.665 - 145.685
CUTE-I 22 Sep 07:50:47 07:56:01 58° 288° (WNW) 08:01:14 437.470
XW-2D 22 Sep 07:54:21 07:57:29 25° 290° (WNW) 08:00:37 145.860 - 145.880
SEEDS 22 Sep 08:01:34 08:05:27 36° 97° (E) 08:09:16 437.485
ZACube-1 22 Sep 08:06:24 08:08:06 12° 90° (E) 08:09:46 437.345
XW-2B 22 Sep 08:07:00 08:09:44 19° 292° (WNW) 08:12:27 145.730 - 145.750
FO-29 22 Sep 08:07:50 08:11:52 20° 65° (ENE) 08:15:42 435.910
XW-2F 22 Sep 08:08:19 08:11:02 19° 292° (WNW) 08:13:45 145.980 - 146.000
CUTE 1.7 + AOD 2 22 Sep 08:26:15 08:30:28 68° 285° (WNW) 08:34:38 437.475
STRAND 1 22 Sep 08:28:53 08:33:20 31° 264° (W) 08:37:51 437.568
AAUSAT CUBESAT 2 22 Sep 08:29:14 08:32:56 32° 97° (E) 08:36:36 437.432
XW-2C 22 Sep 08:29:48 08:30:48 11° 295° (WNW) 08:31:47 145.795 - 145.815
HO-68 22 Sep 08:37:31 08:44:44 81° 287° (WNW) 08:51:56 435.675
NUDT-PHONESAT 22 Sep 08:38:16 08:39:31 11° 295° (WNW) 08:40:45 437.300
CUBEBUG 2 22 Sep 08:38:36 08:43:19 88° 98° (E) 08:48:05 437.445
RS-15 22 Sep 08:40:53 08:51:30 32° 327° (NNW) 09:02:04 29.354- 29.394
UWE-3 22 Sep 08:48:55 08:53:34 66° 101° (E) 08:58:13 435.000/436.395/437.385
TIGRISAT 22 Sep 08:55:57 08:58:07 14° 63° (ENE) 09:00:18 435.000
XW-2A 22 Sep 09:15:10 09:18:17 32° 287° (WNW) 09:21:21 145.665 - 145.685
SEEDS 22 Sep 09:37:59 09:40:50 18° 293° (WNW) 09:43:40 437.485
AO-73 22 Sep 09:38:17 09:42:52 76° 283° (WNW) 09:47:24 145.935
Oscar 11 22 Sep 09:39:14 09:43:36 78° 101° (E) 09:47:56 .
ZACube-1 22 Sep 09:40:11 09:44:45 64° 285° (WNW) 09:49:16 437.345
FO-29 22 Sep 09:51:00 09:56:41 51° 260° (W) 10:01:54 435.910
PRISM 22 Sep 09:56:12 09:59:55 35° 71° (ENE) 10:03:39 437.425
Max Valier Satellite 22 Sep 10:00:55 10:03:42 19° 94° (E) 10:06:27 145.860
AAUSAT CUBESAT 2 22 Sep 10:05:13 10:08:09 19° 292° (WNW) 10:11:05 437.432
UNISAT 6 22 Sep 10:05:47 10:10:06 86° 74° (ENE) 10:14:33 437.425
DELFI C3 22 Sep 10:11:52 10:15:31 37° 98° (E) 10:19:09 145.870
CUBEBUG 2 22 Sep 10:18:42 10:19:12 10° 298° (WNW) 10:19:43 437.445
UWE-3 22 Sep 10:27:15 10:29:26 13° 297° (WNW) 10:31:38 435.000/436.395/437.385
HO-68 22 Sep 10:27:24 10:31:21 16° 306° (NW) 10:35:19 435.675
TIGRISAT 22 Sep 10:30:04 10:34:16 55° 260° (W) 10:38:37 435.000
RS-15 22 Sep 11:01:13 11:09:37 20° 2° (N) 11:17:49 29.354- 29.394
AIST 2D 22 Sep 11:03:07 11:06:23 35° 73° (ENE) 11:09:40 435.315
DUCHIFAT 1 22 Sep 11:03:20 11:05:09 13° 64° (ENE) 11:06:59 145.980
EO-88 22 Sep 11:04:15 11:07:56 84° 283° (WNW) 11:11:34 145.990 - 145.960
YUBILEINY 22 Sep 11:09:09 11:13:46 16° 77° (ENE) 11:18:22 435.215
POLYITAN 1 22 Sep 11:13:19 11:16:29 21° 67° (ENE) 11:19:40 437.675
EO-79 22 Sep 11:17:50 11:21:10 23° 68° (ENE) 11:24:31 145.935-145.965
QB50P2 22 Sep 11:30:20 11:34:10 35° 71° (ENE) 11:38:02 145.880/145.840
PRISM 22 Sep 11:32:31 11:35:16 17° 266° (W) 11:38:02 437.425
Max Valier Satellite 22 Sep 11:34:22 11:37:29 25° 290° (WNW) 11:40:35 145.860
ESTCUBE 1 22 Sep 11:34:34 11:37:43 19° 93° (E) 11:40:50 437.505/2401.250
M-CUBED/EXP-1 PRIME 22 Sep 11:43:07 11:46:30 23° 65° (ENE) 11:49:43 437.505
DELFI C3 22 Sep 11:47:38 11:49:57 15° 293° (WNW) 11:52:15 145.870
